BLUEWALKER 1 (44105 NORAD) Tracking and Keplerian Element Data

This shows tracking and keplerian element data for the satellite.

Feedback or suggestion? Click here.




ElementValue
Catalog44105
NameBLUEWALKER 1
Epoch Orbit435
Epoch Day119.64826126
Epoch Year2019
RAAN180.5333
Inclination97.5234
Eccentricity0.0057625
Argument of Perigee248.6566
Mean Anonmoly110.8518
Mean Motion15.30506265
Decay Rate8.77E-06
L11 44105U 19018AD 19119.64826126 .00000877 00000-0 31080-4 0 9997
L22 44105 97.5234 180.5333 0057625 248.6566 110.8518 15.30506265 4350

Live tracking and technical data element details for BLUEWALKER 1 (NORAD 44105). BLUEWALKER 1 can be tracked NOW for your location showing map with azimuth and elevation plus other details from your city location.

Track the satellite on the map from your city or location and see movement details for azimuth, elevation, latitude, longitude, range, height, and movement on the map or in text.







IsCatalogInMostPopularTable: catalog: 44105, numindb: 105
Update: records affected: 1



GetName: 44105 BLUEWALKER 1

Hit Count: updated at: Fri, 19 Jul 2019 22:39:22 GMT